Location: Gu�tanj
(46.5431°N, 14.9692°E)
Time: 15:08:37
(UTC+00:00)

Okean-O - Pass Details

Date: 03 March 2021
Orbit: 639 x 640 km, 98.2° (Epoch: 15 April)

Event Time Altitude Azimuth Distance (km) Brightness Sun altitude
Rises 18:21:23 0° 187° (S) 2,932 6.0 -16.6°
Reaches altitude 10° 18:23:44 10° 197° (SSW) 2,028 5.3 -17.0°
Maximum altitude 18:27:46 35° 263° (W) 1,047 4.3 -17.7°
Drops below altitude 10° 18:31:51 10° 329° (NNW) 2,043 5.8 -18.4°
Sets 18:34:14 0° 339° (NNW) 2,957 6.5 -18.8°
